Погода в Ковере

Россия / Республика Карелия     61°08′31″N   33°01′11″E
темп.,
°C
ветер,
м/с
пор.,
м/с
влажн.,
%
обл.,
%
осадки,
мм/ч
давл.,
гПа
погр.,
м
8 мая, сб
сб800:00+3ююв2498100 0.0 1006141
03:00+3юв2598100 0.0 1006172
06:00+3вюв2596100 0.1 1004173
09:00+4всв3696100 4.6 1002612
12:00+4св1498100 5.8 1001294
15:00+3зсз3498100 9.9 1001539
18:00+3з3898100 1.6 1004659
21:00+3з389386 1.8 1006629
9 мая, вс
вс900:00+2зсз389674 0.0 1008370
03:000сз259763 0.0 1009109
06:00+1з12891 0.0 101185
09:00+6зюз24725 0.0 1012558
12:00+9з465915 0.5 10131412
15:00+10з574071 1.0 10152327
18:00+9юз46470 0.0 10171146
21:00+4ю23766 0.0 101858
10 мая, пн
пн1000:00+3ю298193 0.0 1019203
03:00+3ю2886100 0.0 1019206
06:00+5ю3782100 0.0 1019263
09:00+6ю3886100 0.1 10191029
12:00+6ю41095100 0.4 1019679
15:00+7ююз31196100 0.6 1020473
18:00+8ююз2898100 0.3 1021221
21:00+9ю2596100 0.3 1022102
11 мая, вт
вт1100:00+10ю31295100 0.0 1022271
03:00+10ююз41492100 0.0 1022378
06:00+9ююз41493100 0.0 1023400
09:00+13юз511794 0.0 1024483
12:00+16юз61059100 0.0 1024777
15:00+19юз51051100 0.0 10241144
18:00+18ююз41155100 0.0 1024882
21:00+13ююз31372100 0.0 1024366
12 мая, ср
ср1200:00+11ююз2128560 0.0 1025271
03:00+9ю299378 0.0 1025190
06:00+10ю29874 0.0 1026239
09:00+15ююз37664 0.0 1026454
12:00+19юз47513 0.0 1026850
15:00+21юз46471 0.0 10261097
18:00+21ююз25500 0.0 1025731
21:00+15юв11710 0.0 102511